This demonstration page uses our WeatherBlox Daily Observations layout. Learn more.

Left ArrowRight Arrow

Hourly Observations for March 9, 2018

Temp ( °F °C ) Dew Point ( °F °C ) Humidity (%) Winds ( mph kmh ) Pressure ( in mb ) Visibility ( mi km ) Precip ( " mm )
12:53 am 00:53 Clear 48 8.9 45 7.2 89 89 Calm 30.02 1017 10 16 0.00 0.00
1:53 am 01:53 Clear 47 8.3 44 6.7 90 90 Calm 30.01 1016 10 16 0.00 0.00
2:53 am 02:53 Clear 47 8.3 45 7.2 93 93 Calm 29.99 1016 10 16 0.00 0.00
3:53 am 03:53 Mostly Cloudy 47 8.3 45 7.2 93 93 Calm 29.99 1016 10 16 0.00 0.00
4:53 am 04:53 Clear 45 7.2 43 6.1 93 93 WSW 3 6 29.98 1015 10 16 0.00 0.00
5:51 am 05:51 Cloudy 46 8 45 7 93 93 Calm 29.97 1015 10 16 0.00 0.00
5:53 am 05:53 Cloudy 46 7.8 44 6.7 93 93 Calm 29.98 1015 10 16 0.00 0.00
6:05 am 06:05 Cloudy 46 7.8 44 6.7 93 93 Calm 29.97 1015 10 16 0.00 0.00
6:53 am 06:53 Cloudy 47 8.3 45 7.2 93 93 Calm 29.98 1015 10 16 0.00 0.00
7:53 am 07:53 Cloudy 49 9.4 46 7.8 90 90 Calm 30.00 1016 10 16 0.00 0.00
8:40 am 08:40 Cloudy with Light Rain 49 9.4 47 8.3 93 93 Calm 30.03 1017 6 10 0.01 0.25
8:53 am 08:53 Cloudy with Light Rain 50 10 47 8.3 89 89 Calm 30.01 1016 5 8 0.02 0.51
9:53 am 09:53 Cloudy with Light Rain 51 10.6 48 8.9 89 89 Calm 30.03 1017 8 13 0.02 0.51
10:04 am 10:04 Cloudy 52 11 48 9 88 88 NW 5 7 30.03 1017 6 10 0.00 0.00
10:53 am 10:53 Cloudy 52 11.1 50 10 93 93 E 7 11 30.03 1017 10 16 0.01 0.25
11:53 am 11:53 Mostly Cloudy 54 12.2 49 9.4 83 83 Calm 30.03 1017 10 16 0.00 0.00
12:53 pm 12:53 Partly Cloudy 58 14.4 51 10.6 78 78 Calm 30.01 1016 10 16 0.00 0.00
1:53 pm 13:53 Mostly Sunny 61 16.1 49 9.4 65 65 E 3 6 29.98 1015 10 16 0.00 0.00
2:53 pm 14:53 Partly Cloudy 62 16.7 49 9.4 62 62 Calm 29.97 1015 10 16 0.00 0.00
3:53 pm 15:53 Partly Cloudy 63 17.2 47 8.3 56 56 S 5 7 29.97 1015 10 16 0.00 0.00
4:53 pm 16:53 Partly Cloudy 64 17.8 46 7.8 52 52 Calm 29.96 1015 10 16 0.00 0.00
5:53 pm 17:53 Partly Cloudy 61 16.1 47 8.3 60 60 N 6 9 29.95 1014 10 16 0.00 0.00
6:53 pm 18:53 Clear 57 13.9 46 7.8 67 67 NW 5 7 29.96 1015 10 16 0.00 0.00
7:53 pm 19:53 Clear 55 12.8 47 8.3 74 74 undefined N/A 29.96 1015 10 16 0.00 0.00
8:53 pm 20:53 Clear 52 11.1 47 8.3 83 83 NW 5 7 29.97 1015 10 16 0.00 0.00
9:53 pm 21:53 Clear 50 10 46 7.8 86 86 Calm 29.98 1015 10 16 0.00 0.00
10:53 pm 22:53 Clear 49 9.4 46 7.8 90 90 N 5 7 29.98 1015 10 16 0.00 0.00
11:53 pm 23:53 Clear 49 9.4 46 7.8 90 90 NNW 5 7 29.97 1015 10 16 0.00 0.00

Powered by AerisWeather